| time (UTC) | temp C | wind direction | speed KPH | gust KPH | rain 1hr cm | rain 24hr cm | rain mn cm | humidity % | barometer mb |
| 20260509000004 | 15 | 213 | 1.6 | 8.0 | 0.00 | 0.00 | 0.00 | 59 | 1021.7 |
| 20260508235505 | 15 | 254 | 1.6 | 3.2 | 0.00 | 0.00 | 0.00 | 58 | 1021.7 |
| 20260508235006 | 15 | 238 | 1.6 | 4.8 | 0.00 | 0.00 | 0.00 | 57 | 1021.7 |
| 20260508234512 | 15 | 281 | 0.0 | 11.3 | 0.00 | 0.00 | 0.00 | 58 | 1021.7 |
| 20260508234003 | 16 | 205 | 1.6 | 11.3 | 0.00 | 0.00 | 0.00 | 54 | 1021.7 |
| 20260508233508 | 16 | 261 | 3.2 | 11.3 | 0.00 | 0.00 | 0.00 | 55 | 1021.6 |
| 20260508233012 | 16 | 294 | 1.6 | 9.7 | 0.00 | 0.00 | 0.00 | 55 | 1021.7 |
| 20260508232505 | 16 | 242 | 3.2 | 9.7 | 0.00 | 0.00 | 0.00 | 54 | 1021.6 |
| 20260508232009 | 16 | 227 | 1.6 | 6.4 | 0.00 | 0.00 | 0.00 | 54 | 1021.6 |
| 20260508231515 | 16 | 298 | 3.2 | 12.9 | 0.00 | 0.00 | 0.00 | 54 | 1021.7 |
| 20260508231008 | 16 | 161 | 1.6 | 12.9 | 0.00 | 0.00 | 0.00 | 55 | 1021.7 |
| 20260508230508 | 16 | 140 | 3.2 | 11.3 | 0.00 | 0.00 | 0.00 | 56 | 1021.8 |
| 20260508230004 | 16 | 207 | 3.2 | 12.9 | 0.00 | 0.00 | 0.00 | 53 | 1021.8 |
| 20260508225504 | 16 | 196 | 3.2 | 12.9 | 0.00 | 0.00 | 0.00 | 54 | 1021.7 |
| 20260508225004 | 16 | 153 | 1.6 | 14.5 | 0.00 | 0.00 | 0.00 | 54 | 1021.7 |
| 20260508224508 | 16 | 173 | 6.4 | 14.5 | 0.00 | 0.00 | 0.00 | 53 | 1021.7 |
| 20260508224003 | 16 | 213 | 1.6 | 11.3 | 0.00 | 0.00 | 0.00 | 53 | 1021.8 |
| 20260508223503 | 16 | 248 | 1.6 | 11.3 | 0.00 | 0.00 | 0.00 | 54 | 1021.9 |
| 20260508223018 | 16 | 287 | 0.0 | 14.5 | 0.00 | 0.00 | 0.00 | 54 | 1021.9 |
| 20260508222503 | 16 | 147 | 3.2 | 16.1 | 0.00 | 0.00 | 0.00 | 53 | 1021.8 |
| 20260508222012 | 16 | 267 | 6.4 | 16.1 | 0.00 | 0.00 | 0.00 | 53 | 1021.8 |
| 20260508221516 | 16 | 205 | 4.8 | 22.5 | 0.00 | 0.00 | 0.00 | 56 | 1021.8 |
| 20260508221008 | 16 | 205 | 9.7 | 20.9 | 0.00 | 0.00 | 0.00 | 55 | 1021.8 |
| 20260508220507 | 16 | 232 | 1.6 | 6.4 | 0.00 | 0.00 | 0.00 | 54 | 1021.8 |
| 20260508220019 | 16 | 196 | 3.2 | 11.3 | 0.00 | 0.00 | 0.00 | 56 | 1021.8 |
| 20260508215516 | 16 | 226 | 3.2 | 11.3 | 0.00 | 0.00 | 0.00 | 54 | 1021.8 |
| 20260508215009 | 16 | 153 | 4.8 | 14.5 | 0.00 | 0.00 | 0.00 | 54 | 1021.9 |
| 20260508214506 | 16 | 239 | 3.2 | 14.5 | 0.00 | 0.00 | 0.00 | 53 | 1021.8 |
| 20260508214003 | 16 | 240 | 3.2 | 14.5 | 0.00 | 0.00 | 0.00 | 53 | 1021.8 |
| 20260508213504 | 16 | 201 | 1.6 | 16.1 | 0.00 | 0.00 | 0.00 | 53 | 1021.9 |
| 20260508213018 | 16 | 9 | 3.2 | 16.1 | 0.00 | 0.00 | 0.00 | 56 | 1021.9 |
| 20260508212502 | 15 | 219 | 4.8 | 14.5 | 0.00 | 0.00 | 0.00 | 57 | 1021.8 |
| 20260508212007 | 16 | 175 | 3.2 | 14.5 | 0.00 | 0.00 | 0.00 | 54 | 1021.9 |
| 20260508211513 | 15 | 225 | 3.2 | 14.5 | 0.00 | 0.00 | 0.00 | 58 | 1021.9 |
| 20260508211008 | 15 | 191 | 6.4 | 12.9 | 0.00 | 0.00 | 0.00 | 56 | 1021.9 |
| 20260508210507 | 15 | 239 | 4.8 | 16.1 | 0.00 | 0.00 | 0.00 | 58 | 1021.9 |
| 20260508210027 | 15 | 200 | 3.2 | 16.1 | 0.00 | 0.00 | 0.00 | 60 | 1021.8 |
| 20260508205512 | 15 | 200 | 1.6 | 11.3 | 0.00 | 0.00 | 0.00 | 57 | 1021.8 |
| 20260508205009 | 16 | 228 | 4.8 | 16.1 | 0.00 | 0.00 | 0.00 | 57 | 1021.7 |
| 20260508204528 | 15 | 183 | 3.2 | 17.7 | 0.00 | 0.00 | 0.00 | 59 | 1021.6 |
| 20260508204010 | 15 | 167 | 4.8 | 17.7 | 0.00 | 0.00 | 0.00 | 60 | 1021.6 |
| 20260508203503 | 15 | 172 | 3.2 | 16.1 | 0.00 | 0.00 | 0.00 | 57 | 1021.6 |
| 20260508203008 | 14 | 350 | 1.6 | 16.1 | 0.00 | 0.00 | 0.00 | 58 | 1021.6 |
| 20260508202504 | 15 | 172 | 6.4 | 16.1 | 0.00 | 0.00 | 0.00 | 60 | 1021.5 |
| 20260508202003 | 15 | 192 | 3.2 | 16.1 | 0.00 | 0.00 | 0.00 | 59 | 1021.5 |
| 20260508201514 | 13 | 221 | 1.6 | 16.1 | 0.00 | 0.00 | 0.00 | 62 | 1021.5 |
| 20260508201006 | 13 | 198 | 3.2 | 19.3 | 0.00 | 0.00 | 0.00 | 62 | 1021.6 |
| 20260508200504 | 13 | 229 | 4.8 | 19.3 | 0.00 | 0.00 | 0.00 | 61 | 1021.6 |
| 20260508200023 | 13 | 187 | 4.8 | 19.3 | 0.00 | 0.00 | 0.00 | 61 | 1021.5 |
| 20260508195511 | 13 | 207 | 6.4 | 12.9 | 0.00 | 0.00 | 0.00 | 60 | 1021.5 |
| 20260508195008 | 13 | 225 | 1.6 | 6.4 | 0.00 | 0.00 | 0.00 | 60 | 1021.5 |
| 20260508194525 | 13 | 277 | 1.6 | 6.4 | 0.00 | 0.00 | 0.00 | 60 | 1021.4 |
| 20260508194008 | 13 | 255 | 3.2 | 8.0 | 0.00 | 0.00 | 0.00 | 61 | 1021.5 |
| 20260508193508 | 13 | 181 | 1.6 | 12.9 | 0.00 | 0.00 | 0.00 | 62 | 1021.6 |
| 20260508193025 | 13 | 202 | 4.8 | 20.9 | 0.00 | 0.00 | 0.00 | 62 | 1021.5 |
| 20260508192511 | 13 | 241 | 3.2 | 20.9 | 0.00 | 0.00 | 0.00 | 64 | 1021.4 |
| 20260508192006 | 13 | 211 | 6.4 | 17.7 | 0.00 | 0.00 | 0.00 | 62 | 1021.3 |
| 20260508191509 | 14 | 304 | 3.2 | 14.5 | 0.00 | 0.00 | 0.00 | 62 | 1021.4 |
| 20260508191003 | 13 | 202 | 1.6 | 6.4 | 0.00 | 0.00 | 0.00 | 65 | 1021.5 |
| 20260508190504 | 13 | 237 | 3.2 | 17.7 | 0.00 | 0.00 | 0.00 | 65 | 1021.4 |
| 20260508190018 | 12 | 238 | 3.2 | 17.7 | 0.00 | 0.00 | 0.00 | 68 | 1021.5 |
| 20260508185506 | 12 | 169 | 6.4 | 16.1 | 0.00 | 0.00 | 0.00 | 68 | 1021.5 |
| 20260508185007 | 12 | 190 | 4.8 | 14.5 | 0.00 | 0.00 | 0.00 | 67 | 1021.5 |
| 20260508184522 | 12 | 213 | 3.2 | 11.3 | 0.00 | 0.00 | 0.00 | 66 | 1021.5 |
| 20260508184006 | 12 | 246 | 3.2 | 11.3 | 0.00 | 0.00 | 0.00 | 66 | 1021.5 |
| 20260508183512 | 12 | 245 | 3.2 | 8.0 | 0.00 | 0.00 | 0.00 | 67 | 1021.5 |
| 20260508183030 | 12 | 222 | 1.6 | 9.7 | 0.00 | 0.00 | 0.00 | 69 | 1021.5 |
| 20260508182509 | 12 | 141 | 1.6 | 9.7 | 0.00 | 0.00 | 0.00 | 69 | 1021.4 |
| 20260508182008 | 12 | 229 | 1.6 | 9.7 | 0.00 | 0.00 | 0.00 | 68 | 1021.3 |
| 20260508181525 | 12 | 201 | 1.6 | 9.7 | 0.00 | 0.00 | 0.00 | 68 | 1021.2 |
| 20260508181013 | 12 | 247 | 1.6 | 9.7 | 0.00 | 0.00 | 0.00 | 68 | 1021.0 |
| 20260508180509 | 12 | 236 | 1.6 | 17.7 | 0.00 | 0.00 | 0.00 | 69 | 1020.9 |
| 20260508180019 | 12 | 303 | 4.8 | 17.7 | 0.00 | 0.00 | 0.00 | 68 | 1020.8 |
| 20260508175507 | 12 | 227 | 3.2 | 14.5 | 0.00 | 0.00 | 0.00 | 70 | 1020.8 |
| 20260508175006 | 12 | 155 | 4.8 | 17.7 | 0.00 | 0.00 | 0.00 | 69 | 1020.8 |
| 20260508174518 | 12 | 185 | 4.8 | 17.7 | 0.00 | 0.00 | 0.00 | 70 | 1020.9 |
| 20260508174009 | 11 | 219 | 3.2 | 16.1 | 0.00 | 0.00 | 0.00 | 70 | 1020.8 |
| 20260508173508 | 11 | 206 | 4.8 | 14.5 | 0.00 | 0.00 | 0.00 | 71 | 1020.8 |
| 20260508173021 | 11 | 224 | 4.8 | 14.5 | 0.00 | 0.00 | 0.00 | 72 | 1020.6 |
| 20260508172514 | 11 | 256 | 6.4 | 12.9 | 0.00 | 0.00 | 0.00 | 73 | 1020.5 |
| 20260508172012 | 11 | 213 | 1.6 | 12.9 | 0.00 | 0.00 | 0.00 | 73 | 1020.4 |
| 20260508171529 | 11 | 231 | 3.2 | 9.7 | 0.00 | 0.00 | 0.00 | 72 | 1020.3 |
| 20260508171013 | 11 | 234 | 0.0 | 9.7 | 0.00 | 0.00 | 0.00 | 73 | 1020.3 |
| 20260508170508 | 11 | 188 | 1.6 | 11.3 | 0.00 | 0.00 | 0.00 | 74 | 1020.1 |
| 20260508170028 | 11 | 215 | 3.2 | 11.3 | 0.00 | 0.00 | 0.00 | 73 | 1020.2 |
| 20260508165509 | 11 | 217 | 1.6 | 6.4 | 0.00 | 0.00 | 0.00 | 77 | 1020.2 |
| 20260508165008 | 11 | 180 | 0.0 | 3.2 | 0.00 | 0.00 | 0.00 | 76 | 1020.1 |
| 20260508164516 | 10 | 205 | 0.0 | 8.0 | 0.00 | 0.00 | 0.00 | 75 | 1020.2 |
| 20260508164011 | 10 | 244 | 1.6 | 8.0 | 0.00 | 0.00 | 0.00 | 74 | 1020.1 |
| 20260508163506 | 10 | 179 | 1.6 | 8.0 | 0.00 | 0.00 | 0.00 | 74 | 1020.1 |
| 20260508163029 | 11 | 161 | 3.2 | 8.0 | 0.00 | 0.00 | 0.00 | 73 | 1020.1 |
| 20260508162508 | 11 | 266 | 1.6 | 8.0 | 0.00 | 0.00 | 0.00 | 74 | 1020.1 |
| 20260508162009 | 11 | 189 | 0.0 | 6.4 | 0.00 | 0.00 | 0.00 | 74 | 1020.0 |
| 20260508161524 | 11 | 195 | 1.6 | 6.4 | 0.00 | 0.00 | 0.00 | 74 | 1019.9 |
| 20260508161009 | 11 | 266 | 1.6 | 6.4 | 0.00 | 0.00 | 0.00 | 75 | 1019.9 |
| 20260508160508 | 11 | 223 | 1.6 | 8.0 | 0.00 | 0.00 | 0.00 | 74 | 1019.9 |
| 20260508160026 | 11 | 197 | 3.2 | 8.0 | 0.00 | 0.00 | 0.00 | 75 | 1019.9 |
| 20260508155516 | 11 | 215 | 3.2 | 8.0 | 0.00 | 0.00 | 0.00 | 73 | 1019.9 |
| 20260508155008 | 10 | 231 | 3.2 | 9.7 | 0.00 | 0.00 | 0.00 | 74 | 1019.9 |
| 20260508154528 | 10 | 237 | 3.2 | 9.7 | 0.00 | 0.00 | 0.00 | 74 | 1019.9 |
| 20260508154013 | 11 | 210 | 4.8 | 11.3 | 0.00 | 0.00 | 0.00 | 75 | 1019.9 |
| 20260508153513 | 10 | 185 | 4.8 | 11.3 | 0.00 | 0.00 | 0.00 | 75 | 1019.8 |
| 20260508153018 | 10 | 159 | 3.2 | 12.9 | 0.00 | 0.00 | 0.00 | 76 | 1019.9 |
| 20260508152508 | 10 | 213 | 4.8 | 12.9 | 0.00 | 0.00 | 0.00 | 76 | 1020.0 |
| 20260508152011 | 11 | 212 | 4.8 | 9.7 | 0.00 | 0.00 | 0.00 | 74 | 1020.1 |
| 20260508151504 | 11 | 208 | 1.6 | 8.0 | 0.00 | 0.00 | 0.00 | 76 | 1020.1 |
| 20260508151004 | 11 | 198 | 3.2 | 16.1 | 0.00 | 0.00 | 0.00 | 77 | 1020.1 |
| 20260508150501 | 10 | 222 | 4.8 | 16.1 | 0.00 | 0.00 | 0.00 | 76 | 1020.0 |
| 20260508150018 | 10 | 225 | 4.8 | 11.3 | 0.00 | 0.00 | 0.00 | 78 | 1020.0 |
| 20260508145506 | 10 | 209 | 3.2 | 11.3 | 0.00 | 0.00 | 0.00 | 78 | 1019.8 |
| 20260508145007 | 10 | 182 | 4.8 | 12.9 | 0.00 | 0.00 | 0.00 | 80 | 1019.8 |
| 20260508144510 | 10 | 190 | 3.2 | 12.9 | 0.00 | 0.00 | 0.00 | 80 | 1019.7 |
| 20260508144006 | 10 | 225 | 3.2 | 8.0 | 0.00 | 0.00 | 0.00 | 81 | 1019.6 |
| 20260508143509 | 9 | 134 | 1.6 | 8.0 | 0.00 | 0.00 | 0.00 | 82 | 1019.5 |
| 20260508143017 | 9 | 217 | 1.6 | 12.9 | 0.00 | 0.00 | 0.00 | 82 | 1019.5 |
| 20260508142507 | 9 | 210 | 1.6 | 12.9 | 0.00 | 0.00 | 0.00 | 82 | 1019.4 |
| 20260508142007 | 9 | 220 | 3.2 | 9.7 | 0.00 | 0.00 | 0.00 | 82 | 1019.3 |
| 20260508141523 | 9 | 200 | 4.8 | 9.7 | 0.00 | 0.00 | 0.00 | 83 | 1019.2 |
| 20260508141009 | 9 | 221 | 1.6 | 9.7 | 0.00 | 0.00 | 0.00 | 84 | 1019.1 |
| 20260508140511 | 8 | 198 | 3.2 | 11.3 | 0.00 | 0.00 | 0.00 | 84 | 1019.1 |
| 20260508140005 | 8 | 194 | 3.2 | 11.3 | 0.00 | 0.00 | 0.00 | 84 | 1018.9 |
| 20260508135503 | 9 | 235 | 3.2 | 11.3 | 0.00 | 0.00 | 0.00 | 84 | 1018.8 |
| 20260508135001 | 9 | 227 | 4.8 | 11.3 | 0.00 | 0.00 | 0.00 | 84 | 1018.7 |
| 20260508134510 | 9 | 224 | 3.2 | 11.3 | 0.00 | 0.00 | 0.00 | 84 | 1018.8 |
| 20260508134008 | 9 | 213 | 4.8 | 9.7 | 0.00 | 0.00 | 0.00 | 84 | 1018.6 |
| 20260508133510 | 9 | 205 | 1.6 | 8.0 | 0.00 | 0.00 | 0.00 | 84 | 1018.6 |
| 20260508133016 | 9 | 186 | 1.6 | 9.7 | 0.00 | 0.00 | 0.00 | 84 | 1018.4 |
| 20260508132506 | 9 | 217 | 3.2 | 9.7 | 0.00 | 0.00 | 0.00 | 84 | 1018.4 |
| 20260508132010 | 9 | 223 | 1.6 | 11.3 | 0.00 | 0.00 | 0.00 | 84 | 1018.2 |
| 20260508131519 | 9 | 172 | 4.8 | 17.7 | 0.00 | 0.00 | 0.00 | 84 | 1018.2 |
| 20260508131012 | 9 | 209 | 4.8 | 17.7 | 0.00 | 0.00 | 0.00 | 84 | 1018.2 |
| 20260508130508 | 9 | 188 | 3.2 | 9.7 | 0.00 | 0.00 | 0.00 | 85 | 1018.2 |
| 20260508130021 | 9 | 223 | 1.6 | 6.4 | 0.00 | 0.00 | 0.00 | 85 | 1018.2 |
| 20260508125509 | 9 | 207 | 3.2 | 8.0 | 0.00 | 0.00 | 0.00 | 85 | 1017.9 |
| 20260508125008 | 9 | 215 | 1.6 | 8.0 | 0.00 | 0.00 | 0.00 | 84 | 1017.8 |
| 20260508124522 | 9 | 199 | 3.2 | 11.3 | 0.00 | 0.00 | 0.00 | 84 | 1017.8 |
| 20260508124006 | 9 | 228 | 3.2 | 11.3 | 0.00 | 0.00 | 0.00 | 84 | 1017.8 |
| 20260508123505 | 9 | 211 | 1.6 | 8.0 | 0.00 | 0.00 | 0.00 | 84 | 1017.8 |
| 20260508123014 | 9 | 217 | 1.6 | 8.0 | 0.00 | 0.00 | 0.00 | 85 | 1017.8 |
| 20260508122505 | 9 | 215 | 1.6 | 6.4 | 0.00 | 0.00 | 0.00 | 85 | 1017.7 |
| 20260508122007 | 9 | 210 | 0.0 | 0.0 | 0.00 | 0.00 | 0.00 | 85 | 1017.6 |
| 20260508121518 | 9 | 210 | 0.0 | 3.2 | 0.00 | 0.00 | 0.00 | 85 | 1017.7 |
| 20260508121009 | 9 | 217 | 0.0 | 3.2 | 0.00 | 0.00 | 0.00 | 85 | 1017.4 |
| 20260508120507 | 9 | 123 | 0.0 | 0.0 | 0.00 | 0.00 | 0.00 | 85 | 1017.5 |
| 20260508120023 | 9 | 217 | 0.0 | 6.4 | 0.00 | 0.00 | 0.00 | 85 | 1017.5 |
| 20260508115510 | 9 | 217 | 0.0 | 6.4 | 0.00 | 0.00 | 0.00 | 85 | 1017.4 |
| 20260508115008 | 9 | 175 | 0.0 | 3.2 | 0.00 | 0.00 | 0.00 | 85 | 1017.5 |
| 20260508114524 | 9 | 208 | 1.6 | 8.0 | 0.00 | 0.00 | 0.00 | 85 | 1017.4 |
| 20260508114009 | 9 | 200 | 1.6 | 8.0 | 0.00 | 0.00 | 0.00 | 86 | 1017.4 |
| 20260508113510 | 9 | 217 | 3.2 | 6.4 | 0.00 | 0.00 | 0.00 | 86 | 1017.4 |
| 20260508113023 | 9 | 215 | 3.2 | 6.4 | 0.00 | 0.00 | 0.00 | 86 | 1017.3 |
| 20260508112505 | 9 | 190 | 0.0 | 0.0 | 0.00 | 0.00 | 0.00 | 86 | 1017.3 |
| 20260508112005 | 9 | 190 | 0.0 | 4.8 | 0.00 | 0.00 | 0.00 | 86 | 1017.1 |
| 20260508111514 | 9 | 190 | 0.0 | 6.4 | 0.00 | 0.00 | 0.00 | 86 | 1017.2 |
| 20260508111006 | 9 | 189 | 1.6 | 6.4 | 0.00 | 0.00 | 0.00 | 86 | 1017.2 |
| 20260508110507 | 9 | 191 | 0.0 | 4.8 | 0.00 | 0.00 | 0.00 | 86 | 1017.2 |
| 20260508110021 | 9 | 219 | 0.0 | 4.8 | 0.00 | 0.00 | 0.00 | 87 | 1017.1 |
| 20260508105508 | 9 | 216 | 0.0 | 3.2 | 0.00 | 0.00 | 0.00 | 86 | 1017.0 |
| 20260508105010 | 9 | 215 | 0.0 | 3.2 | 0.00 | 0.00 | 0.00 | 86 | 1017.0 |
| 20260508104523 | 9 | 352 | 0.0 | 6.4 | 0.00 | 0.00 | 0.00 | 86 | 1016.9 |
| 20260508104009 | 9 | 234 | 1.6 | 6.4 | 0.00 | 0.00 | 0.00 | 87 | 1016.9 |
| 20260508103509 | 9 | 120 | 0.0 | 1.6 | 0.00 | 0.00 | 0.00 | 87 | 1016.9 |
| 20260508103024 | 9 | 120 | 0.0 | 3.2 | 0.00 | 0.00 | 0.00 | 87 | 1016.9 |
| 20260508102512 | 9 | 163 | 0.0 | 3.2 | 0.00 | 0.00 | 0.00 | 87 | 1016.9 |
| 20260508102013 | 9 | 200 | 0.0 | 3.2 | 0.00 | 0.00 | 0.00 | 88 | 1016.9 |
| 20260508101526 | 9 | 189 | 0.0 | 3.2 | 0.00 | 0.00 | 0.00 | 88 | 1016.9 |
| 20260508101004 | 9 | 204 | 0.0 | 3.2 | 0.00 | 0.00 | 0.00 | 88 | 1016.8 |
| 20260508100504 | 9 | 204 | 0.0 | 3.2 | 0.00 | 0.00 | 0.00 | 89 | 1016.8 |
| 20260508100024 | 9 | 204 | 0.0 | 3.2 | 0.00 | 0.00 | 0.00 | 89 | 1016.8 |
| 20260508095504 | 9 | 204 | 0.0 | 3.2 | 0.00 | 0.00 | 0.00 | 89 | 1016.8 |
| 20260508095009 | 9 | 204 | 0.0 | 3.2 | 0.00 | 0.00 | 0.00 | 90 | 1016.8 |
| 20260508094520 | 8 | 296 | 0.0 | 3.2 | 0.00 | 0.00 | 0.00 | 89 | 1016.8 |
| 20260508094014 | 9 | 296 | 0.0 | 0.0 | 0.00 | 0.00 | 0.00 | 89 | 1016.8 |
| 20260508093509 | 9 | 296 | 0.0 | 0.0 | 0.00 | 0.00 | 0.00 | 88 | 1016.8 |
| 20260508093032 | 9 | 296 | 0.0 | 0.0 | 0.00 | 0.00 | 0.00 | 87 | 1016.7 |
| 20260508092509 | 9 | 296 | 0.0 | 0.0 | 0.00 | 0.00 | 0.00 | 87 | 1016.8 |
| 20260508092011 | 9 | 296 | 0.0 | 0.0 | 0.00 | 0.00 | 0.00 | 88 | 1016.8 |
| 20260508091530 | 9 | 296 | 0.0 | 0.0 | 0.00 | 0.00 | 0.00 | 88 | 1016.8 |
| 20260508091007 | 9 | 296 | 0.0 | 0.0 | 0.00 | 0.00 | 0.00 | 87 | 1016.9 |
| 20260508090508 | 9 | 296 | 0.0 | 0.0 | 0.00 | 0.00 | 0.00 | 88 | 1016.8 |
| 20260508090034 | 9 | 296 | 0.0 | 0.0 | 0.00 | 0.00 | 0.00 | 88 | 1016.9 |
| 20260508085504 | 9 | 296 | 0.0 | 0.0 | 0.00 | 0.00 | 0.00 | 88 | 1016.8 |
| 20260508085005 | 9 | 296 | 0.0 | 0.0 | 0.00 | 0.00 | 0.00 | 87 | 1016.8 |
| 20260508084520 | 9 | 296 | 0.0 | 0.0 | 0.00 | 0.00 | 0.00 | 87 | 1016.7 |
| 20260508084007 | 9 | 296 | 0.0 | 0.0 | 0.00 | 0.00 | 0.00 | 87 | 1016.7 |
| 20260508083503 | 9 | 296 | 0.0 | 0.0 | 0.00 | 0.00 | 0.00 | 86 | 1016.7 |
| 20260508083005 | 9 | 296 | 0.0 | 0.0 | 0.00 | 0.00 | 0.00 | 86 | 1016.7 |
| 20260508082502 | 9 | 296 | 0.0 | 0.0 | 0.00 | 0.00 | 0.00 | 85 | 1016.7 |
| 20260508082001 | 9 | 296 | 0.0 | 0.0 | 0.00 | 0.00 | 0.00 | 85 | 1016.7 |
| 20260508081505 | 9 | 296 | 0.0 | 0.0 | 0.00 | 0.00 | 0.00 | 85 | 1016.5 |
| 20260508081006 | 9 | 296 | 0.0 | 0.0 | 0.00 | 0.00 | 0.00 | 85 | 1016.6 |
| 20260508080504 | 10 | 296 | 0.0 | 0.0 | 0.00 | 0.00 | 0.00 | 85 | 1016.6 |
| 20260508080028 | 10 | 296 | 0.0 | 0.0 | 0.00 | 0.00 | 0.00 | 84 | 1016.6 |
| 20260508075503 | 10 | 296 | 0.0 | 0.0 | 0.00 | 0.00 | 0.00 | 84 | 1016.6 |
| 20260508075000 | 10 | 296 | 0.0 | 0.0 | 0.00 | 0.00 | 0.00 | 84 | 1016.6 |
| 20260508074501 | 10 | 296 | 0.0 | 0.0 | 0.00 | 0.00 | 0.00 | 84 | 1016.6 |
| 20260508074001 | 10 | 296 | 0.0 | 0.0 | 0.00 | 0.00 | 0.00 | 84 | 1016.6 |
| 20260508073500 | 10 | 296 | 0.0 | 0.0 | 0.00 | 0.00 | 0.00 | 84 | 1016.7 |
| 20260508073003 | 10 | 296 | 0.0 | 0.0 | 0.00 | 0.00 | 0.00 | 83 | 1016.7 |
| 20260508072501 | 10 | 296 | 0.0 | 0.0 | 0.00 | 0.00 | 0.00 | 83 | 1016.7 |
| 20260508072002 | 10 | 296 | 0.0 | 0.0 | 0.00 | 0.00 | 0.00 | 83 | 1016.8 |
| 20260508071508 | 10 | 296 | 0.0 | 0.0 | 0.00 | 0.00 | 0.00 | 83 | 1016.8 |
| 20260508071005 | 10 | 296 | 0.0 | 0.0 | 0.00 | 0.00 | 0.00 | 83 | 1016.8 |
| 20260508070508 | 10 | 296 | 0.0 | 0.0 | 0.00 | 0.00 | 0.00 | 82 | 1016.8 |
| 20260508070019 | 10 | 296 | 0.0 | 0.0 | 0.00 | 0.00 | 0.00 | 82 | 1016.8 |
| 20260508065503 | 10 | 296 | 0.0 | 0.0 | 0.00 | 0.00 | 0.00 | 83 | 1016.8 |
| 20260508065004 | 10 | 296 | 0.0 | 0.0 | 0.00 | 0.00 | 0.00 | 82 | 1016.8 |
| 20260508064534 | 10 | 296 | 0.0 | 0.0 | 0.00 | 0.00 | 0.00 | 81 | 1016.8 |
| 20260508064005 | 10 | 296 | 0.0 | 0.0 | 0.00 | 0.00 | 0.00 | 81 | 1016.8 |
| 20260508063501 | 10 | 296 | 0.0 | 0.0 | 0.00 | 0.00 | 0.00 | 81 | 1016.7 |
| 20260508063004 | 10 | 296 | 0.0 | 0.0 | 0.00 | 0.00 | 0.00 | 80 | 1016.7 |
| 20260508062502 | 10 | 296 | 0.0 | 0.0 | 0.00 | 0.00 | 0.00 | 80 | 1016.7 |
| 20260508062001 | 10 | 296 | 0.0 | 0.0 | 0.00 | 0.00 | 0.00 | 80 | 1016.7 |
| 20260508061505 | 10 | 296 | 0.0 | 0.0 | 0.00 | 0.00 | 0.00 | 80 | 1016.7 |
| 20260508061001 | 10 | 296 | 0.0 | 0.0 | 0.00 | 0.00 | 0.00 | 80 | 1016.7 |
| 20260508060500 | 10 | 296 | 0.0 | 0.0 | 0.00 | 0.00 | 0.00 | 79 | 1016.7 |
| 20260508060007 | 11 | 296 | 0.0 | 0.0 | 0.00 | 0.00 | 0.00 | 79 | 1016.8 |
| 20260508055504 | 11 | 296 | 0.0 | 0.0 | 0.00 | 0.00 | 0.00 | 79 | 1016.8 |
| 20260508055004 | 11 | 296 | 0.0 | 0.0 | 0.00 | 0.00 | 0.00 | 79 | 1016.8 |
| 20260508054516 | 11 | 296 | 0.0 | 0.0 | 0.00 | 0.00 | 0.00 | 78 | 1016.9 |
| 20260508054005 | 11 | 296 | 0.0 | 3.2 | 0.00 | 0.00 | 0.00 | 77 | 1016.8 |
| 20260508053504 | 11 | 296 | 0.0 | 3.2 | 0.00 | 0.00 | 0.00 | 77 | 1016.8 |
| 20260508053016 | 11 | 296 | 0.0 | 3.2 | 0.00 | 0.00 | 0.00 | 77 | 1016.8 |
| 20260508052510 | 11 | 296 | 0.0 | 0.0 | 0.00 | 0.00 | 0.00 | 76 | 1016.8 |
| 20260508052008 | 11 | 296 | 0.0 | 0.0 | 0.00 | 0.00 | 0.00 | 76 | 1016.8 |
| 20260508051504 | 11 | 296 | 0.0 | 0.0 | 0.00 | 0.00 | 0.00 | 76 | 1016.8 |
| 20260508051006 | 11 | 296 | 0.0 | 0.0 | 0.00 | 0.00 | 0.00 | 76 | 1016.9 |
| 20260508050500 | 11 | 296 | 0.0 | 0.0 | 0.00 | 0.00 | 0.00 | 76 | 1016.8 |
| 20260508050009 | 12 | 296 | 0.0 | 0.0 | 0.00 | 0.00 | 0.00 | 76 | 1016.7 |
| 20260508045504 | 12 | 296 | 0.0 | 0.0 | 0.00 | 0.00 | 0.00 | 76 | 1016.8 |
| 20260508045005 | 12 | 296 | 0.0 | 0.0 | 0.00 | 0.00 | 0.00 | 75 | 1016.8 |
| 20260508044509 | 12 | 296 | 0.0 | 0.0 | 0.00 | 0.00 | 0.00 | 75 | 1016.9 |
| 20260508044004 | 12 | 296 | 0.0 | 0.0 | 0.00 | 0.00 | 0.00 | 75 | 1016.9 |
| 20260508043504 | 12 | 296 | 0.0 | 0.0 | 0.00 | 0.00 | 0.00 | 74 | 1016.9 |
| 20260508043016 | 12 | 296 | 0.0 | 0.0 | 0.00 | 0.00 | 0.00 | 74 | 1016.9 |
| 20260508042506 | 12 | 296 | 0.0 | 0.0 | 0.00 | 0.00 | 0.00 | 74 | 1017.0 |
| 20260508042004 | 12 | 296 | 0.0 | 0.0 | 0.00 | 0.00 | 0.00 | 73 | 1017.0 |
| 20260508041519 | 12 | 296 | 0.0 | 0.0 | 0.00 | 0.00 | 0.00 | 73 | 1016.9 |
| 20260508041006 | 12 | 296 | 0.0 | 0.0 | 0.00 | 0.00 | 0.00 | 73 | 1017.0 |
| 20260508040509 | 13 | 296 | 0.0 | 0.0 | 0.00 | 0.00 | 0.00 | 73 | 1017.1 |
| 20260508040014 | 13 | 296 | 0.0 | 0.0 | 0.00 | 0.00 | 0.00 | 72 | 1017.0 |
| 20260508035501 | 13 | 296 | 0.0 | 0.0 | 0.00 | 0.00 | 0.00 | 72 | 1017.0 |
| 20260508035006 | 13 | 296 | 0.0 | 0.0 | 0.00 | 0.00 | 0.00 | 71 | 1016.8 |
| 20260508034510 | 13 | 296 | 0.0 | 0.0 | 0.00 | 0.00 | 0.00 | 71 | 1016.8 |
| 20260508034005 | 13 | 296 | 0.0 | 0.0 | 0.00 | 0.00 | 0.00 | 69 | 1016.8 |
| 20260508033504 | 13 | 296 | 0.0 | 0.0 | 0.00 | 0.00 | 0.00 | 69 | 1016.7 |
| 20260508033014 | 14 | 296 | 0.0 | 0.0 | 0.00 | 0.00 | 0.00 | 69 | 1016.8 |
| 20260508032504 | 14 | 296 | 0.0 | 0.0 | 0.00 | 0.00 | 0.00 | 67 | 1016.8 |
| 20260508032007 | 14 | 296 | 0.0 | 0.0 | 0.00 | 0.00 | 0.00 | 67 | 1016.8 |
| 20260508031520 | 15 | 296 | 0.0 | 0.0 | 0.00 | 0.00 | 0.00 | 66 | 1016.8 |
| 20260508031012 | 14 | 296 | 0.0 | 0.0 | 0.00 | 0.00 | 0.00 | 67 | 1016.8 |
| 20260508030507 | 15 | 296 | 0.0 | 0.0 | 0.00 | 0.00 | 0.00 | 66 | 1016.9 |
| 20260508030018 | 15 | 296 | 0.0 | 3.2 | 0.00 | 0.00 | 0.00 | 65 | 1016.9 |
| 20260508025509 | 15 | 300 | 0.0 | 3.2 | 0.00 | 0.00 | 0.00 | 62 | 1016.8 |
| 20260508025011 | 15 | 294 | 0.0 | 3.2 | 0.00 | 0.00 | 0.00 | 62 | 1016.8 |
| 20260508024518 | 15 | 291 | 0.0 | 3.2 | 0.00 | 0.00 | 0.00 | 62 | 1017.0 |
| 20260508024005 | 15 | 275 | 0.0 | 3.2 | 0.00 | 0.00 | 0.00 | 62 | 1017.0 |
| 20260508023505 | 15 | 275 | 0.0 | 3.2 | 0.00 | 0.00 | 0.00 | 62 | 1017.1 |
| 20260508023011 | 16 | 275 | 0.0 | 3.2 | 0.00 | 0.00 | 0.00 | 61 | 1017.1 |
| 20260508022506 | 16 | 275 | 0.0 | 3.2 | 0.00 | 0.00 | 0.00 | 60 | 1017.0 |
| 20260508022007 | 16 | 266 | 0.0 | 3.2 | 0.00 | 0.00 | 0.00 | 60 | 1017.0 |
| 20260508021513 | 16 | 309 | 0.0 | 3.2 | 0.00 | 0.00 | 0.00 | 59 | 1017.1 |
| 20260508021007 | 16 | 309 | 0.0 | 3.2 | 0.00 | 0.00 | 0.00 | 58 | 1017.1 |
| 20260508020507 | 16 | 11 | 1.6 | 4.8 | 0.00 | 0.00 | 0.00 | 56 | 1017.1 |
| 20260508020016 | 16 | 5 | 1.6 | 4.8 | 0.00 | 0.00 | 0.00 | 56 | 1017.1 |
| 20260508015507 | 16 | 318 | 0.0 | 3.2 | 0.00 | 0.00 | 0.00 | 57 | 1017.2 |
| 20260508015006 | 16 | 339 | 1.6 | 3.2 | 0.00 | 0.00 | 0.00 | 56 | 1017.3 |
| 20260508014524 | 16 | 290 | 0.0 | 3.2 | 0.00 | 0.00 | 0.00 | 57 | 1017.2 |
| 20260508014007 | 16 | 307 | 1.6 | 3.2 | 0.00 | 0.00 | 0.00 | 57 | 1017.3 |
| 20260508013508 | 16 | 292 | 0.0 | 4.8 | 0.00 | 0.00 | 0.00 | 57 | 1017.3 |
| 20260508013006 | 16 | 5 | 1.6 | 3.2 | 0.00 | 0.00 | 0.00 | 56 | 1017.3 |
| 20260508012506 | 16 | 5 | 0.0 | 6.4 | 0.00 | 0.00 | 0.00 | 57 | 1017.3 |
| 20260508012004 | 16 | 25 | 3.2 | 6.4 | 0.00 | 0.00 | 0.00 | 58 | 1017.5 |
| 20260508011509 | 16 | 322 | 4.8 | 6.4 | 0.00 | 0.00 | 0.00 | 56 | 1017.5 |
| 20260508011008 | 17 | 10 | 1.6 | 4.8 | 0.00 | 0.00 | 0.00 | 58 | 1017.5 |
| 20260508010504 | 16 | 16 | 0.0 | 4.8 | 0.00 | 0.00 | 0.00 | 55 | 1017.5 |
| 20260508010028 | 16 | 12 | 0.0 | 4.8 | 0.00 | 0.00 | 0.00 | 55 | 1017.6 |
| 20260508005507 | 16 | 344 | 1.6 | 4.8 | 0.00 | 0.00 | 0.00 | 55 | 1017.7 |
| 20260508005009 | 17 | 273 | 1.6 | 4.8 | 0.00 | 0.00 | 0.00 | 54 | 1017.7 |
| 20260508004521 | 17 | 184 | 1.6 | 4.8 | 0.00 | 0.00 | 0.00 | 54 | 1017.7 |
| 20260508004013 | 16 | 155 | 1.6 | 4.8 | 0.00 | 0.00 | 0.00 | 56 | 1017.7 |
| 20260508003511 | 16 | 76 | 1.6 | 6.4 | 0.00 | 0.00 | 0.00 | 54 | 1017.7 |
| 20260508003024 | 16 | 17 | 0.0 | 6.4 | 0.00 | 0.00 | 0.00 | 56 | 1017.8 |
| 20260508002507 | 17 | 289 | 3.2 | 6.4 | 0.00 | 0.00 | 0.00 | 54 | 1017.8 |
| 20260508002013 | 17 | 284 | 1.6 | 4.8 | 0.00 | 0.00 | 0.00 | 56 | 1017.9 |
| 20260508001514 | 16 | 289 | 0.0 | 4.8 | 0.00 | 0.00 | 0.00 | 56 | 1017.9 |
| 20260508001005 | 17 | 260 | 1.6 | 9.7 | 0.00 | 0.00 | 0.00 | 57 | 1018.0 |
| 20260508000507 | 16 | 157 | 1.6 | 9.7 | 0.00 | 0.00 | 0.00 | 57 | 1018.0 |